[[{"header":{"parameterUnit":"m.s-1","parameterCategory":2,"la1":30.2991,"la2":30.254,"lo1":-89.0895,"lo2":-89.0444,"dy":0.0017,"dx":0.0017,"nx":28,"ny":28,"refTime":"2023-08-11T09:00:00:Z","depth":"0","parameterNumber":2,"parameterNumberName":"U-component_of_CURRENTS"},"data":[0,0,0,0,0,0,0,0,0,0,0,0,0,0,0,0,0,0,0,0,0,0,0,0,0,0,0,0,0,0,0,0,0,0,0,0,0,0,0,0,0,0,0,0,0,0,0,0,0,0,0,0,0,0,0,0,0,0,-0.154,-0.1539,0,-0.1487,-0.1486,-0.1486,-0.1432,-0.1431,-0.143,-0.1429,-0.1358,-0.1358,-0.1357,0,0,0,0,0,0,0,0,0,0,0,0,0,-0.1548,-0.1549,-0.154,-0.1539,-0.1538,-0.1487,-0.1486,-0.1486,-0.1432,-0.1431,-0.1429,-0.1428,-0.1359,-0.1358,-0.1357,0,0,0,0,0,0,0,0,0,0,0,0,0,-0.1528,-0.1549,-0.154,-0.1503,-0.1498,-0.1487,-0.1486,-0.1486,-0.1432,-0.1431,-0.1429,-0.1428,-0.1359,-0.1358,-0.1356,-0.1379,0,0,-0.1352,-0.1352,0,0,0,0,0,0,0,0,-0.1529,-0.1528,-0.1509,-0.1505,-0.15,-0.1461,-0.1463,-0.1448,-0.1433,-0.1461,-0.1429,-0.1427,-0.139,-0.1386,-0.1385,-0.1376,-0.1373,-0.1352,-0.1351,-0.1351,-0.135,0,0,0,0,0,0,0,-0.1531,-0.153,-0.1522,-0.1508,-0.1503,-0.1472,-0.1468,-0.146,-0.1437,-0.1458,-0.1453,-0.1443,-0.1388,-0.1386,-0.1382,-0.1372,-0.1352,-0.1351,-0.135,-0.135,-0.1323,-0.1323,0,0,0,0,0,0,-0.1535,-0.1532,-0.1524,-0.152,-0.1508,-0.1473,-0.1469,-0.1478,-0.1437,-0.1429,-0.1444,-0.144,-0.1389,-0.1384,-0.138,-0.1373,-0.1351,-0.1349,-0.1349,-0.1323,-0.1323,-0.1323,0,0,0,0,0,0,-0.1536,-0.1536,-0.1526,-0.1521,-0.1517,-0.1475,-0.1485,-0.1478,-0.1474,-0.1426,-0.1418,-0.1447,-0.1388,-0.1382,-0.1397,-0.137,-0.1349,-0.1348,-0.1323,-0.1323,-0.1323,-0.1379,0,0,0,0,0,0,-0.1537,-0.1537,-0.1543,-0.1522,-0.1517,-0.1525,-0.1486,-0.1478,-0.1468,-0.1463,-0.1426,-0.1418,-0.1386,-0.1399,-0.1395,-0.1368,-0.1347,-0.1323,-0.1323,-0.1323,-0.1377,-0.1381,-0.1384,0,0,0,0,0,-0.1538,-0.1543,-0.1544,-0.1542,-0.1528,-0.1526,-0.1522,-0.1487,-0.147,-0.1477,-0.1467,-0.1419,-0.1395,-0.1401,-0.1395,-0.1367,-0.1322,-0.1323,-0.1323,-0.1375,-0.138,-0.1384,0,0,0,0,0,0,-0.1536,-0.1538,-0.1538,-0.1541,-0.154,-0.1515,-0.1509,-0.1498,-0.1496,-0.1487,-0.1451,-0.1444,-0.144,-0.1408,-0.1414,-0.1357,-0.1338,-0.1337,-0.1379,-0.1383,-0.1387,-0.1348,-0.1345,0,0,0,0,0,-0.1545,-0.1556,-0.1554,-0.1556,-0.156,-0.1543,-0.1536,-0.1519,-0.1512,-0.1508,-0.1487,-0.1457,-0.1437,-0.1419,-0.1403,-0.1391,-0.1326,-0.1359,-0.1363,-0.1366,-0.1331,-0.1266,-0.1261,-0.1324,-0.1324,-0.1324,0,0,-0.1541,-0.1544,-0.1547,-0.1557,-0.1552,-0.1546,-0.1536,-0.153,-0.1514,-0.1502,-0.1487,-0.1485,-0.1445,-0.1429,-0.1418,-0.1397,-0.1312,-0.1366,-0.137,-0.1331,-0.1266,-0.126,-0.1254,-0.1324,-0.1324,-0.1324,0,0,-0.1525,-0.1551,-0.1548,-0.1552,-0.1549,-0.155,-0.1555,-0.1548,-0.1538,-0.1543,-0.152,-0.1516,-0.1487,-0.1449,-0.1425,-0.1441,-0.1349,-0.1422,-0.1393,-0.1333,-0.1326,-0.132,-0.122,-0.1204,-0.1406,-0.1407,-0.1407,0,-0.1521,-0.1511,-0.1546,-0.1536,-0.1522,-0.1555,-0.1533,-0.1542,-0.1539,-0.1525,-0.1539,-0.1494,-0.1484,-0.1431,-0.1436,-0.1444,-0.138,-0.1385,-0.1336,-0.1329,-0.1321,-0.122,-0.1202,-0.1409,-0.1409,-0.1409,-0.1408,0,-0.149,-0.1483,-0.1483,-0.1488,-0.1492,-0.1484,-0.1499,-0.1513,-0.1519,-0.1509,-0.1488,-0.1494,-0.145,-0.1451,-0.1449,-0.1382,-0.1344,-0.1366,-0.1325,-0.1318,-0.1212,-0.1192,-0.1413,-0.1412,-0.1411,-0.1411,0,0,-0.1472,-0.1463,-0.1459,-0.1441,-0.1458,-0.1457,-0.1459,-0.1454,-0.1437,-0.1455,-0.1409,-0.141,-0.1413,-0.1385,-0.1383,-0.1334,-0.1251,-0.1321,-0.1317,-0.1219,-0.1073,-0.1073,-0.105,-0.1267,-0.1264,-0.1261,-0.1017,0,-0.143,-0.1398,-0.1399,-0.1366,-0.1354,-0.1378,-0.137,-0.1376,-0.1392,-0.1376,-0.1374,-0.1347,-0.1386,-0.1367,-0.1332,-0.1284,-0.1201,-0.1312,-0.1094,-0.1086,-0.1086,-0.1029,-0.0887,-0.066,-0.0997,-0.0994,-0.0991,0,-0.1387,-0.1372,-0.1329,-0.1296,-0.129,-0.128,-0.1275,-0.1268,-0.1272,-0.1275,-0.1264,-0.1269,-0.1218,-0.1257,-0.1129,-0.1197,-0.1118,-0.1074,-0.1064,-0.1021,-0.1049,-0.0722,-0.061,-0.0489,-0.096,-0.0963,-0.0965,0,-0.1358,-0.1315,-0.1278,-0.1269,-0.1252,-0.1231,-0.1226,-0.1235,-0.1215,-0.1209,-0.1185,-0.1155,-0.1114,-0.1048,-0.0994,-0.1041,-0.0832,-0.089,-0.079,-0.0787,-0.0598,-0.0585,-0.0335,-0.0742,-0.0743,-0.0744,-0.0744,0,-0.1311,-0.1276,-0.1262,-0.1245,-0.1195,-0.1194,-0.1151,-0.1157,-0.1135,-0.1094,-0.1124,-0.1071,-0.1059,-0.0969,-0.0926,-0.0791,-0.0769,-0.0741,-0.0719,-0.0615,-0.0608,-0.0442,-0.0557,-0.0734,-0.0736,-0.0738,-0.074,0,-0.1277,-0.1268,-0.1226,-0.1197,-0.1183,-0.1154,-0.1106,-0.1074,-0.1066,-0.1011,-0.0995,-0.0967,-0.0863,-0.0821,-0.0689,-0.0679,-0.0551,-0.0512,-0.0381,-0.0352,-0.0216,-0.0345,-0.0308,-0.03,-0.0361,-0.036,-0.0359,0,-0.1256,-0.1234,-0.1199,-0.1171,-0.1151,-0.1108,-0.107,-0.1051,-0.1016,-0.0941,-0.0897,-0.0794,-0.0714,-0.0535,-0.0473,-0.0344,-0.0414,-0.0163,-0.0255,-0.0144,-0.0269,-0.0468,-0.0479,0.0004,0.0008,0.0012,0.0014,0,-0.1211,-0.1204,-0.1168,-0.1112,-0.1069,-0.1017,-0.0964,-0.0926,-0.0887,-0.0833,-0.0725,-0.0646,-0.0482,-0.0317,-0.0194,-0.0116,-0.0191,-0.0095,0.0018,0.0037,-0.0154,-0.0155,-0.0211,0.0045,0.0042,0.0039,0.0038,0.0036,-0.1166,-0.1129,-0.108,-0.1014,-0.0974,-0.0904,-0.0836,-0.0791,-0.0708,-0.0594,-0.057,-0.0399,-0.0192,-0.001,0.0083,0.0321,0.0015,0.0371,0.0217,0.0019,-0.0025,-0.0028,0.0214,0.0212,0.0211,0.0209,0.0208,0,-0.1072,-0.1026,-0.0975,-0.0886,-0.0818,-0.0826,-0.0735,-0.065,-0.0537,-0.0441,-0.0336,-0.0035,0.0202,0.039,0.0646,0.0697,0.06,0.0669,0.0521,0.0503,0.0611,0.0586,0.0923,0.0923,0.0923,0.0923,0.0922,0.0922,-0.1006,-0.0915,-0.0881,-0.0738,-0.0693,-0.0569,-0.051,-0.0415,-0.031,-0.0086,0.0089,0.0209,0.0474,0.0745,0.1009,0.0996,0.0859,0.071,0.0592,0.0807,0.0772,0.0738,0.0706,0.1062,0.1062,0.0624,0.062,0.0617]},{"header":{"parameterUnit":"m.s-1","parameterCategory":2,"la1":30.2991,"la2":30.254,"lo1":-89.0895,"lo2":-89.0444,"dy":0.0017,"dx":0.0017,"nx":28,"ny":28,"refTime":"2023-08-11T09:00:00:Z","depth":"0","parameterNumber":3,"parameterNumberName":"V-component_of_CURRENTS"},"data":[0,0,0,0,0,0,0,0,0,0,0,0,0,0,0,0,0,0,0,0,0,0,0,0,0,0,0,0,0,0,0,0,0,0,0,0,0,0,0,0,0,0,0,0,0,0,0,0,0,0,0,0,0,0,0,0,0,0,-0.0951,-0.0953,0,-0.1071,-0.1072,-0.1073,-0.1071,-0.107,-0.1069,-0.1068,-0.094,-0.0938,-0.0936,0,0,0,0,0,0,0,0,0,0,0,0,0,-0.0825,-0.0826,-0.0951,-0.0953,-0.0955,-0.1071,-0.1072,-0.1073,-0.1072,-0.107,-0.1069,-0.1068,-0.0941,-0.0938,-0.0935,0,0,0,0,0,0,0,0,0,0,0,0,0,-0.0899,-0.0826,-0.095,-0.0973,-0.0977,-0.1071,-0.1072,-0.1073,-0.1072,-0.107,-0.1069,-0.1067,-0.0942,-0.0939,-0.0935,-0.0943,0,0,-0.0924,-0.0922,0,0,0,0,0,0,0,0,-0.0895,-0.0903,-0.0967,-0.0972,-0.0976,-0.106,-0.0981,-0.102,-0.1072,-0.1029,-0.1068,-0.1067,-0.0963,-0.0957,-0.0978,-0.0937,-0.0931,-0.0923,-0.0921,-0.0919,-0.0918,0,0,0,0,0,0,0,-0.089,-0.0899,-0.0992,-0.097,-0.0975,-0.1014,-0.1021,-0.099,-0.0993,-0.1033,-0.1034,-0.1058,-0.0962,-0.0982,-0.0974,-0.0929,-0.0923,-0.092,-0.0918,-0.0916,-0.0834,-0.0834,0,0,0,0,0,0,-0.0884,-0.0893,-0.0988,-0.0996,-0.0938,-0.1017,-0.1025,-0.1029,-0.0999,-0.0997,-0.106,-0.1058,-0.0989,-0.0978,-0.0969,-0.0919,-0.0919,-0.0916,-0.0914,-0.0834,-0.0834,-0.0834,0,0,0,0,0,0,-0.0881,-0.0891,-0.0984,-0.0954,-0.0969,-0.1021,-0.1026,-0.1033,-0.105,-0.1024,-0.1015,-0.107,-0.0987,-0.0974,-0.0914,-0.0915,-0.0914,-0.0911,-0.0833,-0.0834,-0.0834,-0.0854,0,0,0,0,0,0,-0.0876,-0.0888,-0.0891,-0.0953,-0.0971,-0.1034,-0.1029,-0.1037,-0.1071,-0.1069,-0.103,-0.1017,-0.0985,-0.092,-0.091,-0.091,-0.0908,-0.0833,-0.0833,-0.0834,-0.0853,-0.0854,-0.0855,0,0,0,0,0,-0.0871,-0.0886,-0.089,-0.0902,-0.0971,-0.1035,-0.1047,-0.1075,-0.1073,-0.1083,-0.1035,-0.1018,-0.0914,-0.0916,-0.0905,-0.0904,-0.0833,-0.0833,-0.0834,-0.0852,-0.0854,-0.0855,0,0,0,0,0,0,-0.084,-0.089,-0.0895,-0.0925,-0.0972,-0.1037,-0.106,-0.1081,-0.1063,-0.1048,-0.1006,-0.099,-0.094,-0.0921,-0.0925,-0.0882,-0.0877,-0.0874,-0.0895,-0.0896,-0.0897,-0.0917,-0.0905,0,0,0,0,0,-0.0834,-0.0854,-0.0909,-0.0936,-0.0955,-0.1006,-0.1037,-0.106,-0.1062,-0.1056,-0.1031,-0.0989,-0.0939,-0.0913,-0.0876,-0.0849,-0.0834,-0.0846,-0.0847,-0.0848,-0.0858,-0.0832,-0.0831,-0.0834,-0.0834,-0.0834,0,0,-0.0838,-0.0866,-0.0881,-0.0931,-0.0966,-0.0996,-0.1018,-0.1069,-0.1083,-0.1039,-0.1029,-0.0989,-0.0931,-0.0894,-0.0873,-0.0873,-0.0839,-0.0849,-0.085,-0.0859,-0.0832,-0.0831,-0.0831,-0.0834,-0.0834,-0.0834,0,0,-0.0853,-0.0869,-0.0885,-0.0918,-0.0975,-0.1004,-0.1016,-0.1074,-0.1081,-0.1075,-0.1034,-0.0994,-0.0946,-0.0906,-0.0873,-0.0863,-0.0843,-0.0857,-0.088,-0.0854,-0.0854,-0.0853,-0.0829,-0.0827,-0.0862,-0.0862,-0.0862,0,-0.0848,-0.0873,-0.0905,-0.0928,-0.0954,-0.1,-0.1022,-0.1046,-0.1077,-0.1071,-0.1067,-0.0996,-0.0952,-0.089,-0.0887,-0.0866,-0.0849,-0.0876,-0.0856,-0.0855,-0.0854,-0.083,-0.0827,-0.0863,-0.0863,-0.0863,-0.0863,0,-0.0879,-0.0891,-0.0908,-0.0934,-0.0964,-0.1001,-0.1033,-0.1052,-0.1065,-0.1083,-0.1048,-0.1001,-0.0957,-0.0944,-0.0907,-0.0879,-0.0868,-0.0856,-0.0853,-0.0855,-0.0829,-0.0826,-0.0864,-0.0864,-0.0864,-0.0864,0,0,-0.0874,-0.0916,-0.0918,-0.0922,-0.0969,-0.0997,-0.101,-0.1034,-0.1035,-0.1056,-0.1045,-0.0987,-0.0984,-0.0949,-0.0911,-0.0899,-0.0875,-0.0883,-0.0881,-0.0862,-0.0819,-0.0838,-0.0835,-0.0859,-0.0858,-0.0858,-0.0801,0,-0.088,-0.0909,-0.093,-0.095,-0.0963,-0.0991,-0.0998,-0.1021,-0.1032,-0.1034,-0.1011,-0.098,-0.0978,-0.0949,-0.0939,-0.0883,-0.0868,-0.0892,-0.0818,-0.0816,-0.0834,-0.0832,-0.0749,-0.0694,-0.0798,-0.0797,-0.0796,0,-0.0893,-0.0908,-0.0926,-0.094,-0.0947,-0.0962,-0.0971,-0.0989,-0.0995,-0.1,-0.099,-0.0975,-0.0946,-0.0948,-0.0891,-0.0907,-0.087,-0.0843,-0.0839,-0.0851,-0.0829,-0.0709,-0.0683,-0.0503,-0.079,-0.0791,-0.0791,0,-0.0869,-0.0898,-0.0906,-0.0918,-0.0946,-0.0947,-0.096,-0.0974,-0.0978,-0.0979,-0.0974,-0.0953,-0.0924,-0.09,-0.0863,-0.0868,-0.0807,-0.0797,-0.0781,-0.0781,-0.0695,-0.0689,-0.0489,-0.076,-0.076,-0.076,-0.076,0,-0.0863,-0.0865,-0.0895,-0.0901,-0.0901,-0.0929,-0.0926,-0.0938,-0.0947,-0.0938,-0.0954,-0.0935,-0.0913,-0.0881,-0.0857,-0.0817,-0.0799,-0.079,-0.0771,-0.07,-0.0696,-0.0524,-0.0463,-0.0758,-0.0758,-0.0759,-0.0759,0,-0.0828,-0.0856,-0.0859,-0.0882,-0.0889,-0.0887,-0.0906,-0.0904,-0.0922,-0.0908,-0.0904,-0.0905,-0.0876,-0.0859,-0.0801,-0.0795,-0.0663,-0.0743,-0.0671,-0.0647,-0.0494,-0.044,-0.032,-0.022,-0.0721,-0.0721,-0.0721,0,-0.0809,-0.0813,-0.0834,-0.0835,-0.0842,-0.085,-0.0855,-0.0884,-0.0881,-0.0885,-0.0869,-0.0852,-0.083,-0.0787,-0.0775,-0.0744,-0.062,-0.0639,-0.0645,-0.0477,-0.04,-0.039,-0.0312,-0.0522,-0.0521,-0.052,-0.0519,0,-0.0758,-0.0771,-0.0775,-0.078,-0.0785,-0.0789,-0.0796,-0.0795,-0.0818,-0.0809,-0.0792,-0.078,-0.077,-0.0726,-0.0711,-0.0669,-0.0496,-0.0617,-0.0433,-0.0234,-0.0214,-0.011,-0.0571,-0.0508,-0.0509,-0.051,-0.051,-0.0511,-0.0708,-0.0699,-0.0709,-0.0709,-0.0714,-0.0709,-0.0694,-0.0701,-0.0688,-0.0648,-0.0697,-0.0641,-0.0623,-0.0615,-0.0559,-0.0363,-0.0434,-0.0267,-0.0216,-0.0223,-0.0122,-0.0585,-0.0517,-0.0519,-0.0519,-0.052,-0.0521,0,-0.0643,-0.064,-0.0636,-0.0631,-0.0612,-0.064,-0.0636,-0.0607,-0.0564,-0.053,-0.0511,-0.0418,-0.0358,-0.0279,-0.0136,0.0029,0.0098,0.0158,0.0262,0.0322,-0.005,-0.0034,0.0133,0.0132,0.0132,0.0132,0.0132,0.0132,-0.0604,-0.0584,-0.0587,-0.0531,-0.0524,-0.0487,-0.0473,-0.0432,-0.0392,-0.0259,-0.0163,-0.0125,0.0031,0.0142,0.0413,0.0482,0.0705,0.0666,0.0739,0.0569,0.0536,0.0504,0.054,0.0824,0.0824,0.1148,0.1152,0.1154]}],[{"header":{"parameterUnit":"m.s-1","parameterCategory":2,"la1":30.2991,"la2":30.254,"lo1":-89.0895,"lo2":-89.0444,"dy":0.0017,"dx":0.0017,"nx":28,"ny":28,"refTime":"2023-08-11T09:00:00:Z","depth":"2","parameterNumber":2,"parameterNumberName":"U-component_of_CURRENTS"},"data":[0,0,0,0,0,0,0,0,0,0,0,0,0,0,0,0,0,0,0,0,0,0,0,0,0,0,0,0,0,0,0,0,0,0,0,0,0,0,0,0,0,0,0,0,0,0,0,0,0,0,0,0,0,0,0,0,0,0,-0.3458,-0.3457,0,-0.3349,-0.3348,-0.3346,-0.3346,-0.3348,-0.335,-0.3352,-0.3402,-0.3402,-0.3401,0,0,0,0,0,0,0,0,0,0,0,0,0,-0.3381,-0.3384,-0.3458,-0.3457,-0.3456,-0.335,-0.3348,-0.3345,-0.3345,-0.3348,-0.335,-0.3353,-0.3402,-0.3402,-0.3401,0,0,0,0,0,0,0,0,0,0,0,0,0,-0.3352,-0.3385,-0.3458,-0.3448,-0.3447,-0.335,-0.3347,-0.3345,-0.3345,-0.3348,-0.3351,-0.3354,-0.3403,-0.3402,-0.3401,-0.3337,0,0,-0.3399,-0.3398,0,0,0,0,0,0,0,0,-0.3354,-0.3355,-0.345,-0.3449,-0.3447,-0.337,-0.3339,-0.3352,-0.3344,-0.3377,-0.3352,-0.3355,-0.3408,-0.3407,-0.3369,-0.3339,-0.3341,-0.3399,-0.3398,-0.3398,-0.3398,0,0,0,0,0,0,0,-0.3357,-0.3358,-0.3409,-0.345,-0.3447,-0.3352,-0.3353,-0.3339,-0.3375,-0.3374,-0.3376,-0.3372,-0.3408,-0.3369,-0.337,-0.3342,-0.3399,-0.3398,-0.3398,-0.3397,-0.338,-0.338,0,0,0,0,0,0,-0.3395,-0.3361,-0.3412,-0.3406,-0.3414,-0.3353,-0.3353,-0.3386,-0.3372,-0.3373,-0.337,-0.3373,-0.3369,-0.3371,-0.3373,-0.3367,-0.3398,-0.3397,-0.3397,-0.338,-0.338,-0.338,0,0,0,0,0,0,-0.3394,-0.3402,-0.3417,-0.3383,-0.338,-0.3354,-0.3388,-0.3383,-0.34,-0.3368,-0.3372,-0.3402,-0.3371,-0.3374,-0.3401,-0.3367,-0.3397,-0.3396,-0.338,-0.338,-0.338,-0.3311,0,0,0,0,0,0,-0.3393,-0.3403,-0.3432,-0.3388,-0.3384,-0.34,-0.3386,-0.3379,-0.3393,-0.3397,-0.3395,-0.3399,-0.3374,-0.3402,-0.34,-0.3367,-0.3396,-0.338,-0.338,-0.338,-0.3313,-0.3308,-0.3304,0,0,0,0,0,-0.3391,-0.3435,-0.3435,-0.3441,-0.3429,-0.3401,-0.339,-0.3373,-0.3393,-0.34,-0.3402,-0.3402,-0.3401,-0.3402,-0.3399,-0.3364,-0.338,-0.338,-0.338,-0.3315,-0.3309,-0.3304,0,0,0,0,0,0,-0.3403,-0.3437,-0.3438,-0.3487,-0.3462,-0.3405,-0.3403,-0.3402,-0.34,-0.342,-0.3404,-0.3406,-0.3407,-0.3414,-0.3416,-0.3365,-0.3389,-0.3388,-0.334,-0.3335,-0.3331,-0.3294,-0.3395,0,0,0,0,0,-0.3422,-0.3474,-0.3462,-0.3494,-0.3492,-0.3455,-0.3443,-0.344,-0.343,-0.3433,-0.3418,-0.3413,-0.3389,-0.3395,-0.3375,-0.3358,-0.3303,-0.3338,-0.3333,-0.3329,-0.3301,-0.3224,-0.3208,-0.338,-0.338,-0.338,0,0,-0.3432,-0.3455,-0.3482,-0.35,-0.3474,-0.3448,-0.3456,-0.3459,-0.3427,-0.3439,-0.3407,-0.3402,-0.3385,-0.3347,-0.3349,-0.336,-0.3243,-0.3329,-0.3325,-0.3298,-0.3221,-0.3204,-0.3188,-0.338,-0.338,-0.338,0,0,-0.344,-0.3499,-0.3523,-0.3511,-0.3504,-0.3477,-0.3499,-0.3464,-0.345,-0.3422,-0.3411,-0.34,-0.337,-0.3327,-0.3308,-0.3281,-0.3223,-0.3286,-0.3227,-0.3153,-0.3136,-0.3121,-0.2979,-0.2952,-0.3284,-0.3283,-0.3283,0,-0.3461,-0.347,-0.3515,-0.3507,-0.3482,-0.3501,-0.3472,-0.3449,-0.3423,-0.3386,-0.3422,-0.3326,-0.3341,-0.3254,-0.3242,-0.3263,-0.319,-0.3241,-0.3141,-0.3126,-0.3112,-0.297,-0.2941,-0.328,-0.3281,-0.3281,-0.3281,0,-0.3443,-0.3454,-0.3462,-0.3462,-0.3447,-0.3437,-0.3412,-0.3394,-0.3387,-0.334,-0.3275,-0.3264,-0.3204,-0.3207,-0.3214,-0.3114,-0.308,-0.3139,-0.3142,-0.3089,-0.2944,-0.2915,-0.3275,-0.3277,-0.3278,-0.3278,0,0,-0.3463,-0.3463,-0.3453,-0.3423,-0.3424,-0.3397,-0.336,-0.3294,-0.3238,-0.3218,-0.3112,-0.3088,-0.3082,-0.3062,-0.3066,-0.3009,-0.2852,-0.3029,-0.3027,-0.2862,-0.2614,-0.2479,-0.2434,-0.2889,-0.2885,-0.2882,-0.2532,0,-0.3421,-0.3397,-0.3397,-0.3331,-0.3304,-0.3299,-0.3238,-0.3192,-0.3153,-0.3062,-0.3039,-0.2965,-0.3028,-0.2994,-0.2945,-0.2887,-0.278,-0.2936,-0.2711,-0.2702,-0.257,-0.2399,-0.2378,-0.2056,-0.2504,-0.2499,-0.2496,0,-0.3346,-0.3351,-0.33,-0.3236,-0.322,-0.3173,-0.3071,-0.3031,-0.2938,-0.2904,-0.2842,-0.2825,-0.2735,-0.2813,-0.2636,-0.2729,-0.2649,-0.2601,-0.2589,-0.2465,-0.2514,-0.2195,-0.1986,-0.2447,-0.2451,-0.2455,-0.2458,0,-0.3272,-0.3241,-0.3199,-0.3185,-0.3144,-0.3083,-0.3044,-0.2962,-0.2903,-0.2802,-0.2737,-0.265,-0.2581,-0.2502,-0.2435,-0.2516,-0.2212,-0.2322,-0.2094,-0.2082,-0.2017,-0.2006,-0.2144,-0.2145,-0.2146,-0.2147,-0.2148,0,-0.3205,-0.3131,-0.3153,-0.3129,-0.303,-0.3019,-0.2895,-0.2849,-0.2763,-0.2662,-0.2654,-0.2539,-0.2505,-0.2359,-0.2321,-0.2077,-0.2113,-0.1999,-0.1965,-0.1988,-0.1979,-0.2321,-0.2346,-0.2133,-0.2136,-0.2139,-0.2141,0,-0.3071,-0.3103,-0.3032,-0.3014,-0.299,-0.2911,-0.2822,-0.2731,-0.2681,-0.2545,-0.2511,-0.2402,-0.2199,-0.2114,-0.1934,-0.1884,-0.1715,-0.1622,-0.1609,-0.1579,-0.165,-0.1677,-0.1291,-0.1283,-0.1276,-0.127,-0.1265,0,-0.2987,-0.2962,-0.2948,-0.2907,-0.2879,-0.279,-0.2714,-0.2679,-0.2608,-0.245,-0.2369,-0.2148,-0.1977,-0.1628,-0.1472,-0.1248,-0.143,-0.112,-0.1284,-0.1546,-0.1553,-0.1591,-0.1626,-0.1149,-0.1144,-0.114,-0.1136,0,-0.2828,-0.2833,-0.2806,-0.2755,-0.2684,-0.262,-0.2532,-0.2488,-0.2431,-0.2332,-0.2155,-0.2005,-0.1615,-0.1359,-0.1059,-0.0963,-0.1167,-0.1017,-0.1253,-0.1388,-0.1389,-0.1406,-0.1449,-0.1097,-0.1101,-0.1104,-0.1106,-0.1107,-0.2672,-0.2633,-0.2629,-0.2545,-0.2489,-0.2434,-0.2343,-0.2302,-0.2212,-0.2024,-0.1951,-0.1661,-0.1466,-0.0952,-0.0797,-0.066,-0.0736,-0.0793,-0.0816,-0.0842,-0.0907,-0.0899,-0.052,-0.0521,-0.0521,-0.0522,-0.0522,0,-0.246,-0.2444,-0.2404,-0.2336,-0.2248,-0.2254,-0.2184,-0.21,-0.1978,-0.1798,-0.1608,-0.1253,-0.1019,-0.0832,-0.0552,-0.0428,-0.0515,-0.044,-0.0646,-0.0682,-0.0714,-0.0786,-0.0359,-0.0359,-0.0358,-0.0358,0,0,-0.2336,-0.2262,-0.2279,-0.2113,-0.2047,-0.1898,-0.1842,-0.1762,-0.1629,-0.1355,-0.1148,-0.1012,-0.0875,-0.0668,-0.0549,-0.0442,-0.0571,-0.04,-0.0536,-0.0821,-0.0855,-0.0913,-0.1058,0,0,0,0,0]},{"header":{"parameterUnit":"m.s-1","parameterCategory":2,"la1":30.2991,"la2":30.254,"lo1":-89.0895,"lo2":-89.0444,"dy":0.0017,"dx":0.0017,"nx":28,"ny":28,"refTime":"2023-08-11T09:00:00:Z","depth":"2","parameterNumber":3,"parameterNumberName":"V-component_of_CURRENTS"},"data":[0,0,0,0,0,0,0,0,0,0,0,0,0,0,0,0,0,0,0,0,0,0,0,0,0,0,0,0,0,0,0,0,0,0,0,0,0,0,0,0,0,0,0,0,0,0,0,0,0,0,0,0,0,0,0,0,0,0,0.0287,0.0289,0,0.0413,0.0414,0.0415,0.0505,0.0506,0.0507,0.0508,0.0812,0.0819,0.0825,0,0,0,0,0,0,0,0,0,0,0,0,0,0.0082,0.0085,0.0287,0.0289,0.0291,0.0413,0.0414,0.0415,0.0504,0.0506,0.0507,0.0509,0.081,0.0818,0.0826,0,0,0,0,0,0,0,0,0,0,0,0,0,0.018,0.0086,0.0286,0.0355,0.0362,0.0413,0.0414,0.0416,0.0504,0.0506,0.0508,0.051,0.0807,0.0817,0.0827,0.0853,0,0,0.0859,0.0863,0,0,0,0,0,0,0,0,0.0175,0.0187,0.0342,0.035,0.0359,0.045,0.0454,0.0573,0.0504,0.0444,0.0508,0.0511,0.071,0.0728,0.0737,0.0867,0.088,0.086,0.0866,0.087,0.0873,0,0,0,0,0,0,0,0.0168,0.0182,0.0331,0.0345,0.0355,0.0366,0.0381,0.0475,0.0563,0.0449,0.0457,0.0481,0.0715,0.0726,0.0745,0.0885,0.0859,0.0869,0.0875,0.0879,0.1143,0.1144,0,0,0,0,0,0,0.0165,0.0176,0.0327,0.0335,0.0276,0.0368,0.0386,0.0414,0.0559,0.0583,0.0479,0.0484,0.0708,0.0733,0.0757,0.0882,0.087,0.088,0.0886,0.1142,0.1143,0.1144,0,0,0,0,0,0,0.016,0.0177,0.0322,0.0262,0.0283,0.0371,0.0401,0.0416,0.0456,0.058,0.0607,0.0509,0.071,0.0742,0.0852,0.0892,0.0885,0.0894,0.1141,0.1143,0.1144,0.1079,0,0,0,0,0,0,0.0154,0.0175,0.0182,0.0263,0.0286,0.0371,0.0401,0.0417,0.0469,0.0478,0.0615,0.0643,0.0714,0.0836,0.0863,0.0906,0.0902,0.114,0.1142,0.1143,0.108,0.1078,0.1076,0,0,0,0,0,0.0146,0.0162,0.0182,0.02,0.0298,0.0372,0.0384,0.0448,0.0469,0.0489,0.0573,0.064,0.0865,0.0845,0.0876,0.0923,0.114,0.1141,0.1143,0.1081,0.1078,0.1076,0,0,0,0,0,0,0.008,0.0175,0.0199,0.0244,0.0308,0.039,0.0409,0.0453,0.0528,0.0543,0.065,0.0683,0.0801,0.0862,0.0836,0.1001,0.1015,0.1023,0.0957,0.0955,0.0953,0.0918,0.0911,0,0,0,0,0,0.0066,0.0096,0.0193,0.0221,0.0256,0.0329,0.0363,0.0413,0.0494,0.0528,0.0622,0.0723,0.0825,0.0888,0.0984,0.1069,0.1083,0.1119,0.1117,0.1115,0.1106,0.1137,0.1136,0.115,0.115,0.115,0,0,0.0044,0.0099,0.0116,0.0206,0.0254,0.0314,0.0354,0.0415,0.0468,0.0553,0.0645,0.0728,0.0847,0.0945,0.1003,0.1005,0.1115,0.1117,0.1114,0.1107,0.1138,0.1137,0.1135,0.1151,0.1151,0.1151,0,0,0.0025,0.0069,0.0097,0.0153,0.024,0.0296,0.032,0.0416,0.0464,0.0554,0.0633,0.0724,0.0876,0.0957,0.1021,0.1064,0.1107,0.1107,0.1071,0.11,0.1099,0.1097,0.109,0.1089,0.1101,0.1101,0.1101,0,0.0003,0.005,0.0113,0.0162,0.0206,0.0292,0.034,0.0403,0.052,0.0556,0.0584,0.0773,0.088,0.0993,0.1009,0.1062,0.1063,0.107,0.1094,0.1093,0.1093,0.1086,0.1085,0.1098,0.1098,0.1099,0.1099,0,0.0017,0.0055,0.0075,0.0165,0.0218,0.0269,0.0373,0.0429,0.0491,0.0552,0.0663,0.0773,0.0873,0.0935,0.0994,0.1059,0.1053,0.1087,0.109,0.1087,0.1081,0.1081,0.1094,0.1095,0.1096,0.1096,0,0,-0.002,0.007,0.0077,0.0109,0.0224,0.0272,0.0353,0.0448,0.0486,0.0589,0.0631,0.0799,0.0824,0.0895,0.0976,0.1013,0.1019,0.104,0.1043,0.1012,0.1046,0.1006,0.1003,0.1048,0.1048,0.1048,0.1032,0,-0.0022,0.0041,0.0094,0.0155,0.0203,0.0288,0.0346,0.0436,0.051,0.0569,0.0673,0.0749,0.0822,0.0853,0.0904,0.1003,0.102,0.1018,0.1071,0.1072,0.1021,0.1003,0.1013,0.0997,0.1032,0.1033,0.1033,0,-0.0028,0.0025,0.0071,0.0146,0.0173,0.0206,0.0293,0.0359,0.046,0.051,0.0581,0.0657,0.0746,0.079,0.0911,0.09,0.0957,0.102,0.1021,0.1007,0.1033,0.1014,0.0996,0.1033,0.1033,0.1033,0.1033,0,-0.0089,-0.0001,0.0023,0.0056,0.0164,0.0175,0.022,0.0318,0.0373,0.0443,0.0475,0.058,0.0628,0.0719,0.0846,0.0873,0.0948,0.1005,0.1016,0.1013,0.1045,0.1043,0.1061,0.1061,0.1061,0.1061,0.1061,0,-0.0111,-0.0096,-0.002,0.0006,0.0026,0.0102,0.0126,0.0187,0.0264,0.032,0.0411,0.0463,0.0611,0.0687,0.0796,0.0885,0.0901,0.0994,0.1008,0.102,0.1017,0.1079,0.1082,0.106,0.106,0.106,0.1061,0,-0.0193,-0.0142,-0.0107,-0.002,-0.0007,-0.0005,0.0063,0.0101,0.0158,0.0225,0.024,0.0368,0.0443,0.0569,0.071,0.0812,0.0909,0.0933,0.0912,0.0924,0.0965,0.0965,0.0949,0.0948,0.0947,0.0946,0.0945,0,-0.0231,-0.0221,-0.0146,-0.0131,-0.0108,-0.0086,-0.0054,0.0028,0.0081,0.0181,0.0215,0.028,0.0332,0.0479,0.0655,0.0777,0.0825,0.0877,0.0949,0.0939,0.0955,0.0956,0.0958,0.0961,0.096,0.096,0.0959,0,-0.0282,-0.0274,-0.0232,-0.02,-0.018,-0.0134,-0.0094,-0.0071,0.0039,0.0067,0.0112,0.0131,0.0282,0.0441,0.0599,0.0685,0.0858,0.0867,0.0873,0.0979,0.0947,0.0963,0.0965,0.0955,0.0955,0.0955,0.0956,0.0956,-0.0336,-0.0332,-0.0282,-0.0262,-0.0231,-0.0195,-0.0176,-0.0124,-0.0095,-0.0039,-0.0007,0.0084,0.024,0.0485,0.0579,0.0749,0.0787,0.0891,0.0895,0.0898,0.0894,0.0861,0.0849,0.0849,0.0849,0.0849,0.0849,0,-0.0375,-0.0354,-0.0334,-0.0298,-0.0285,-0.0242,-0.0185,-0.0177,-0.0176,-0.0085,-0.0092,0.0054,0.0252,0.0458,0.0746,0.0838,0.0837,0.083,0.0874,0.088,0.0885,0.0881,0.0832,0.0832,0.0831,0.0831,0,0,-0.039,-0.0378,-0.0361,-0.0352,-0.0329,-0.0285,-0.0258,-0.0278,-0.0204,-0.0212,-0.006,0.0031,0.0345,0.0509,0.0613,0.0785,0.0777,0.0748,0.0762,0.0805,0.0807,0.0931,0.0932,0,0,0,0,0]}],[{"header":{"parameterUnit":"m.s-1","parameterCategory":2,"la1":30.2991,"la2":30.254,"lo1":-89.0895,"lo2":-89.0444,"dy":0.0017,"dx":0.0017,"nx":28,"ny":28,"refTime":"2023-08-11T09:00:00:Z","depth":"4","parameterNumber":2,"parameterNumberName":"U-component_of_CURRENTS"},"data":[0,0,0,0,0,0,0,0,0,0,0,0,0,0,0,0,0,0,0,0,0,0,0,0,0,0,0,0,0,0,0,0,0,0,0,0,0,0,0,0,0,0,0,0,0,0,0,0,0,0,0,0,0,0,0,0,0,0,-0.1242,-0.1243,0,-0.1346,-0.1347,-0.1349,-0.1409,-0.1409,-0.1409,-0.1409,-0.1495,-0.1497,-0.1499,0,0,0,0,0,0,0,0,0,0,0,0,0,-0.1168,-0.1169,-0.1242,-0.1243,-0.1244,-0.1346,-0.1347,-0.1349,-0.1409,-0.1409,-0.1409,-0.1409,-0.1494,-0.1497,-0.1499,0,0,0,0,0,0,0,0,0,0,0,0,0,-0.1231,-0.1169,-0.1242,-0.1284,-0.1289,-0.1345,-0.1347,-0.1349,-0.1409,-0.1409,-0.1409,-0.1409,-0.1493,-0.1496,-0.15,-0.1522,0,0,-0.151,-0.1512,0,0,0,0,0,0,0,0,-0.1227,-0.1234,-0.1277,-0.1281,-0.1287,-0.1362,-0.1352,-0.1405,-0.1409,-0.1367,-0.1409,-0.1409,-0.1447,-0.1454,-0.1478,-0.1526,-0.1529,-0.1511,-0.1513,-0.1514,-0.1515,0,0,0,0,0,0,0,-0.1223,-0.1231,-0.1286,-0.1278,-0.1284,-0.1322,-0.1331,-0.1363,-0.1407,-0.137,-0.1374,-0.1381,-0.145,-0.1474,-0.148,-0.1531,-0.151,-0.1514,-0.1516,-0.1517,-0.1645,-0.1647,0,0,0,0,0,0,-0.1201,-0.1226,-0.1283,-0.1289,-0.1253,-0.1323,-0.1333,-0.134,-0.1408,-0.1417,-0.1381,-0.1383,-0.1469,-0.1476,-0.1483,-0.1558,-0.1514,-0.1517,-0.1519,-0.1644,-0.1646,-0.1647,0,0,0,0,0,0,-0.1199,-0.1205,-0.1279,-0.1258,-0.1269,-0.1324,-0.1332,-0.1342,-0.1386,-0.1415,-0.1425,-0.1415,-0.1469,-0.1479,-0.1538,-0.1559,-0.1519,-0.1522,-0.1642,-0.1644,-0.1646,-0.1677,0,0,0,0,0,0,-0.1196,-0.1203,-0.1219,-0.1256,-0.1269,-0.1318,-0.1332,-0.1344,-0.1387,-0.1392,-0.1447,-0.1455,-0.147,-0.1533,-0.1541,-0.1563,-0.1525,-0.1641,-0.1643,-0.1646,-0.1674,-0.168,-0.1685,0,0,0,0,0,-0.1193,-0.1204,-0.1219,-0.1227,-0.1283,-0.1318,-0.133,-0.137,-0.1389,-0.141,-0.1457,-0.1454,-0.1554,-0.1538,-0.1547,-0.157,-0.1639,-0.1643,-0.1645,-0.1672,-0.1679,-0.1685,0,0,0,0,0,0,-0.1182,-0.1212,-0.1229,-0.125,-0.1285,-0.1327,-0.1352,-0.1381,-0.1438,-0.1446,-0.148,-0.1491,-0.1548,-0.1558,-0.1539,-0.1614,-0.1593,-0.1598,-0.161,-0.1616,-0.1621,-0.1605,-0.1528,0,0,0,0,0,-0.1184,-0.12,-0.1236,-0.1255,-0.1271,-0.1318,-0.1344,-0.1368,-0.1412,-0.1438,-0.1485,-0.1527,-0.1566,-0.159,-0.1625,-0.1672,-0.166,-0.169,-0.1695,-0.17,-0.1693,-0.1709,-0.1715,-0.1657,-0.1657,-0.1657,0,0,-0.1186,-0.1204,-0.1216,-0.1254,-0.1285,-0.1316,-0.1335,-0.137,-0.1406,-0.1437,-0.1514,-0.155,-0.1584,-0.1638,-0.1663,-0.165,-0.1709,-0.1703,-0.1707,-0.1698,-0.1713,-0.1718,-0.1723,-0.1659,-0.1659,-0.1658,0,0,-0.1187,-0.1212,-0.1227,-0.1256,-0.1295,-0.1323,-0.1336,-0.1393,-0.143,-0.1499,-0.153,-0.1583,-0.1652,-0.1681,-0.1701,-0.1755,-0.1737,-0.1766,-0.178,-0.1797,-0.1801,-0.1805,-0.1787,-0.1789,-0.1767,-0.1768,-0.1768,0,-0.1193,-0.121,-0.1239,-0.1262,-0.1284,-0.1327,-0.1351,-0.1398,-0.1474,-0.1505,-0.1524,-0.1638,-0.167,-0.1727,-0.1749,-0.1766,-0.176,-0.1754,-0.1802,-0.1805,-0.1809,-0.179,-0.1791,-0.1769,-0.1769,-0.1769,-0.1769,0,-0.1201,-0.1227,-0.1237,-0.1279,-0.1311,-0.1333,-0.1387,-0.1437,-0.1488,-0.1533,-0.1613,-0.1671,-0.1731,-0.1755,-0.1773,-0.1817,-0.1799,-0.1806,-0.1781,-0.1816,-0.1794,-0.1795,-0.1772,-0.1771,-0.1771,-0.177,0,0,-0.118,-0.1232,-0.124,-0.1258,-0.1317,-0.1338,-0.14,-0.1458,-0.1495,-0.1583,-0.1635,-0.1723,-0.1754,-0.1779,-0.1813,-0.1835,-0.1858,-0.1833,-0.1833,-0.1806,-0.187,-0.1688,-0.1671,-0.1875,-0.1876,-0.1877,-0.184,0,-0.1179,-0.1209,-0.1245,-0.1286,-0.1301,-0.1358,-0.1409,-0.147,-0.1529,-0.1594,-0.1661,-0.1725,-0.1763,-0.1794,-0.1828,-0.1852,-0.1864,-0.1865,-0.1848,-0.1847,-0.1673,-0.1668,-0.1879,-0.1841,-0.1841,-0.1841,-0.1841,0,-0.1173,-0.119,-0.122,-0.1273,-0.1288,-0.1328,-0.1396,-0.1451,-0.1541,-0.1585,-0.1659,-0.1712,-0.1779,-0.1798,-0.1854,-0.1854,-0.1862,-0.1875,-0.1874,-0.1691,-0.1666,-0.1803,-0.1843,-0.1843,-0.1843,-0.1843,-0.1843,0,-0.1117,-0.1175,-0.1192,-0.1212,-0.1281,-0.1315,-0.1365,-0.1449,-0.1485,-0.1581,-0.1601,-0.1699,-0.1727,-0.1783,-0.1811,-0.1842,-0.1835,-0.1879,-0.172,-0.1707,-0.1871,-0.1867,-0.1901,-0.1901,-0.1901,-0.1901,-0.1901,0,-0.1079,-0.1098,-0.1171,-0.1178,-0.1206,-0.128,-0.1319,-0.1385,-0.146,-0.1483,-0.1593,-0.1599,-0.1724,-0.1739,-0.1788,-0.1724,-0.1815,-0.1701,-0.1681,-0.1883,-0.1882,-0.187,-0.1867,-0.1899,-0.19,-0.19,-0.19,0,-0.1005,-0.1054,-0.108,-0.1155,-0.1176,-0.1203,-0.1276,-0.1303,-0.1382,-0.141,-0.1437,-0.1519,-0.1514,-0.1589,-0.1641,-0.1643,-0.1638,-0.1592,-0.1761,-0.1754,-0.1514,-0.1514,-0.143,-0.1423,-0.1418,-0.1413,-0.1409,0,-0.0963,-0.0969,-0.1046,-0.1055,-0.1088,-0.1131,-0.1158,-0.1255,-0.127,-0.1336,-0.133,-0.1344,-0.1382,-0.1292,-0.1399,-0.1427,-0.1432,-0.1438,-0.1522,-0.1475,-0.1465,-0.1473,-0.148,-0.1399,-0.1398,-0.1396,-0.1395,0,-0.0883,-0.0928,-0.0949,-0.0966,-0.0996,-0.1011,-0.1053,-0.1048,-0.1143,-0.1216,-0.1167,-0.1174,-0.113,-0.1166,-0.1155,-0.1204,-0.1452,-0.1379,-0.1393,-0.1473,-0.1437,-0.1434,-0.1448,-0.1375,-0.1378,-0.138,-0.1381,0,-0.0838,-0.0827,-0.0863,-0.0871,-0.0893,-0.0879,-0.0919,-0.0917,-0.0941,-0.1026,-0.0993,-0.1021,-0.1075,-0.1043,-0.1056,-0.1049,-0.1081,-0.1124,-0.1153,-0.1176,-0.1116,-0.1035,-0.0808,0,0,0,0,0,-0.0787,-0.0758,-0.0759,-0.075,-0.0766,-0.0776,-0.0838,-0.0884,-0.0967,-0.089,-0.0938,-0.0894,-0.0878,-0.0903,-0.085,-0.0977,-0.1104,-0.0919,-0.1173,-0.1263,-0.1287,-0.1242,0,0,0,0,0,0,-0.0744,-0.0741,-0.0728,-0.065,-0.0613,-0.0614,-0.0655,-0.072,-0.068,-0.0767,-0.0742,-0.0826,-0.0806,-0.0852,-0.0811,-0.0826,-0.0973,-0.095,-0.0948,-0.125,-0.1271,-0.129,-0.1252,0,0,0,0,0]},{"header":{"parameterUnit":"m.s-1","parameterCategory":2,"la1":30.2991,"la2":30.254,"lo1":-89.0895,"lo2":-89.0444,"dy":0.0017,"dx":0.0017,"nx":28,"ny":28,"refTime":"2023-08-11T09:00:00:Z","depth":"4","parameterNumber":3,"parameterNumberName":"V-component_of_CURRENTS"},"data":[0,0,0,0,0,0,0,0,0,0,0,0,0,0,0,0,0,0,0,0,0,0,0,0,0,0,0,0,0,0,0,0,0,0,0,0,0,0,0,0,0,0,0,0,0,0,0,0,0,0,0,0,0,0,0,0,0,0,-0.028,-0.028,0,-0.023,-0.0229,-0.0229,-0.0179,-0.0178,-0.0177,-0.0177,-0.0122,-0.0121,-0.012,0,0,0,0,0,0,0,0,0,0,0,0,0,-0.0284,-0.0285,-0.028,-0.028,-0.0279,-0.023,-0.0229,-0.0228,-0.0179,-0.0178,-0.0177,-0.0176,-0.0122,-0.0121,-0.012,0,0,0,0,0,0,0,0,0,0,0,0,0,-0.0264,-0.0285,-0.028,-0.0248,-0.0244,-0.023,-0.0229,-0.0228,-0.0179,-0.0178,-0.0177,-0.0176,-0.0122,-0.0121,-0.012,-0.0134,0,0,-0.0116,-0.0116,0,0,0,0,0,0,0,0,-0.0265,-0.0264,-0.0253,-0.025,-0.0246,-0.0209,-0.021,-0.0196,-0.0179,-0.0205,-0.0177,-0.0175,-0.0151,-0.0147,-0.0141,-0.0131,-0.0129,-0.0116,-0.0115,-0.0115,-0.0115,0,0,0,0,0,0,0,-0.0267,-0.0265,-0.0261,-0.0253,-0.0248,-0.0218,-0.0215,-0.0207,-0.0185,-0.0202,-0.0198,-0.0192,-0.0149,-0.0142,-0.0139,-0.0128,-0.0116,-0.0115,-0.0114,-0.0114,-0.0116,-0.0117,0,0,0,0,0,0,-0.0276,-0.0267,-0.0262,-0.0259,-0.0252,-0.0219,-0.0215,-0.0222,-0.0185,-0.0178,-0.0193,-0.019,-0.0145,-0.0141,-0.0137,-0.016,-0.0115,-0.0114,-0.0113,-0.0115,-0.0116,-0.0117,0,0,0,0,0,0,-0.0276,-0.0276,-0.0264,-0.026,-0.0257,-0.0221,-0.0229,-0.0222,-0.0215,-0.0178,-0.017,-0.0193,-0.0144,-0.0139,-0.0135,-0.0157,-0.0113,-0.0112,-0.0114,-0.0115,-0.0116,-0.02,0,0,0,0,0,0,-0.0277,-0.0277,-0.0285,-0.0262,-0.0257,-0.0262,-0.0229,-0.0222,-0.0213,-0.0208,-0.0176,-0.0169,-0.0143,-0.0137,-0.0134,-0.0155,-0.0111,-0.0113,-0.0115,-0.0116,-0.0196,-0.0204,-0.0211,0,0,0,0,0,-0.0277,-0.0288,-0.0286,-0.0285,-0.027,-0.0262,-0.0258,-0.0228,-0.0214,-0.0217,-0.0196,-0.017,-0.0144,-0.0138,-0.0133,-0.0154,-0.0112,-0.0114,-0.0116,-0.0193,-0.0203,-0.021,0,0,0,0,0,0,-0.0286,-0.0284,-0.028,-0.0289,-0.0281,-0.0254,-0.0253,-0.0237,-0.0223,-0.0219,-0.0184,-0.0177,-0.0181,-0.0157,-0.015,-0.0157,-0.0123,-0.0124,-0.0183,-0.0191,-0.0198,-0.0206,-0.011,0,0,0,0,0,-0.0296,-0.0309,-0.0298,-0.0305,-0.0307,-0.0285,-0.0278,-0.0261,-0.0245,-0.0237,-0.0218,-0.0197,-0.0186,-0.018,-0.0165,-0.0174,-0.0126,-0.0182,-0.0189,-0.0195,-0.0199,-0.0139,-0.014,-0.0123,-0.0123,-0.0123,0,0,-0.0304,-0.0301,-0.031,-0.0309,-0.0302,-0.032,-0.0279,-0.0276,-0.0291,-0.0236,-0.0252,-0.0223,-0.0194,-0.0201,-0.02,-0.0183,-0.0176,-0.0198,-0.0203,-0.0203,-0.0141,-0.0142,-0.0144,-0.0124,-0.0124,-0.0123,0,0,-0.0326,-0.0326,-0.0348,-0.0351,-0.0346,-0.0339,-0.0344,-0.033,-0.0325,-0.0336,-0.0299,-0.0282,-0.0274,-0.0251,-0.024,-0.0278,-0.0216,-0.0274,-0.0318,-0.0261,-0.0262,-0.0262,-0.0207,-0.0201,-0.0278,-0.0278,-0.0278,0,-0.0334,-0.0361,-0.035,-0.0373,-0.0385,-0.0358,-0.0389,-0.0385,-0.037,-0.0371,-0.0353,-0.0326,-0.0298,-0.0299,-0.0309,-0.0294,-0.0249,-0.0291,-0.027,-0.0269,-0.0267,-0.0211,-0.0203,-0.0282,-0.0282,-0.0281,-0.0281,0,-0.0376,-0.04,-0.0412,-0.0443,-0.0456,-0.0472,-0.0476,-0.0483,-0.0476,-0.0464,-0.046,-0.0418,-0.0396,-0.0387,-0.0362,-0.0346,-0.0313,-0.0286,-0.0249,-0.0274,-0.0213,-0.0204,-0.0288,-0.0287,-0.0286,-0.0284,0,0,-0.0386,-0.0435,-0.044,-0.047,-0.0495,-0.0509,-0.0548,-0.0565,-0.0583,-0.0561,-0.0575,-0.0544,-0.0503,-0.0486,-0.0443,-0.0395,-0.0346,-0.0342,-0.0337,-0.0289,-0.0215,-0.0172,-0.0157,-0.0311,-0.0309,-0.0309,-0.0178,0,-0.0422,-0.0481,-0.05,-0.0564,-0.0599,-0.0605,-0.0645,-0.0656,-0.0653,-0.0658,-0.0607,-0.0601,-0.0547,-0.0534,-0.0479,-0.039,-0.0325,-0.0384,-0.0196,-0.0191,-0.015,-0.0147,-0.0305,-0.0171,-0.0168,-0.0167,-0.0166,0,-0.0459,-0.0493,-0.0566,-0.063,-0.0648,-0.0687,-0.0738,-0.0765,-0.0765,-0.0758,-0.0732,-0.0691,-0.064,-0.0579,-0.0428,-0.0467,-0.0344,-0.026,-0.0253,-0.0176,-0.0131,-0.0137,-0.0148,-0.015,-0.0151,-0.0152,-0.0153,0,-0.047,-0.054,-0.0601,-0.0624,-0.0693,-0.0731,-0.0766,-0.0792,-0.0814,-0.0814,-0.0816,-0.0753,-0.0722,-0.0577,-0.0421,-0.0416,-0.0237,-0.0206,-0.0044,-0.0039,-0.008,-0.0081,-0.0065,-0.0065,-0.0065,-0.0066,-0.0066,0,-0.0497,-0.0547,-0.0612,-0.0645,-0.0721,-0.0759,-0.0827,-0.0849,-0.0871,-0.0887,-0.0859,-0.0844,-0.0716,-0.0608,-0.0441,-0.0228,-0.0247,-0.0046,-0.0,-0.012,-0.0127,-0.0073,-0.0076,-0.0061,-0.0062,-0.0063,-0.0064,0,-0.0508,-0.0549,-0.0623,-0.0702,-0.0731,-0.0785,-0.0867,-0.0904,-0.0923,-0.0941,-0.0942,-0.0909,-0.0771,-0.062,-0.0398,-0.0258,-0.0056,0.0039,-0.0114,-0.008,0.0113,0.0104,0.0231,0.0234,0.0236,0.0238,0.024,0,-0.0522,-0.0558,-0.0656,-0.0704,-0.0747,-0.0825,-0.0878,-0.0923,-0.0946,-0.096,-0.0955,-0.0877,-0.0817,-0.0493,-0.0334,-0.0032,0.0031,0.0127,0.0137,0.0113,0.0145,0.0132,0.0121,0.0243,0.0244,0.0244,0.0245,0,-0.0542,-0.0579,-0.0634,-0.0721,-0.0792,-0.0873,-0.0935,-0.0946,-0.0979,-0.0999,-0.0931,-0.0802,-0.0653,-0.0456,-0.0241,-0.0014,0.0047,0.0152,0.015,0.0161,0.0129,0.0156,0.0142,0.0253,0.0252,0.0251,0.0251,0,-0.055,-0.0593,-0.0657,-0.0731,-0.0822,-0.0889,-0.0928,-0.0934,-0.0951,-0.0935,-0.091,-0.0776,-0.0721,-0.0441,-0.0235,-0.0034,0.0043,0.0127,0.0128,0.0121,0.0047,-0.0013,0.0113,0,0,0,0,0,-0.0552,-0.0593,-0.0663,-0.0747,-0.0833,-0.0883,-0.0951,-0.0974,-0.0986,-0.0919,-0.0904,-0.075,-0.0479,-0.0398,-0.0177,-0.018,0.0069,0.0086,0.0164,0.0296,0.0287,0.0221,0,0,0,0,0,0,-0.0558,-0.0618,-0.065,-0.0734,-0.0791,-0.0885,-0.0929,-0.0944,-0.0891,-0.0881,-0.0744,-0.0675,-0.0424,-0.0598,-0.017,-0.0117,-0.0029,0.02,0.0206,0.0301,0.0293,0.0286,0.0215,0,0,0,0,0]}]]